Location: Agadir Mansour Mhndou
(31.2424°N, 8.7730°W)
Time: 06:01:17
(UTC+00:00)

CZ-4C R/B - Pass Details

Date: 16 October 2021
Orbit: 403 x 482 km, 97.7° (Epoch: 28 November)

Event Time Altitude Azimuth Distance (km) Brightness Sun altitude
Rises 18:52:52 0° 7° (N) 2,477 6.5 -11.6°
Reaches altitude 10° 18:54:57 10° 5° (N) 1,586 5.6 -12.1°
Maximum altitude 18:58:18 63° 284° (WNW) 499 3.4 -12.8°
Drops below altitude 10° 19:01:33 10° 202° (SSW) 1,530 5.9 -13.5°
Sets 19:03:31 0° 199° (SSW) 2,378 6.9 -13.9°
